contact:dominique.lefevre@mio.osupytheas.fr, maurice.libes@osupytheas.fr, didier.mallarino@osupytheas.fr
Project:EMSO http://www.emso-fr.org/EMSO-France
Depth: 2436.0 m
Title:EMSO Ligure Ouest : Data MII capteur CSTAR
DateTime,Latitude,Longitude,Instrument_Serial,Reference_Counts,Signal_Counts,Corrected_Signal_raw_counts,Calculated_Beam_c_inverse_meters,Internal_thermistor_counts
DateTime,Latitude,Longitude,Instrument_Serial,Reference_Counts,Signal_Counts,Corrected_Signal_raw_counts,Calculated_Beam_c_inverse_meters,Internal_thermistor_counts
2022-01-24T00:01:44,42.805,6.029,CST-1368DR,4955,6262,13501,0.582,551
2022-01-24T00:04:46,42.805,6.029,CST-1368DR,4955,6262,13502,0.582,551
2022-01-24T00:07:47,42.805,6.029,CST-1368DR,4955,6262,13501,0.582,551
2022-01-24T00:10:49,42.805,6.029,CST-1368DR,4955,6262,13500,0.582,551
2022-01-24T00:13:51,42.805,6.029,CST-1368DR,4955,6262,13502,0.582,551
2022-01-24T00:16:52,42.805,6.029,CST-1368DR,4955,6262,13501,0.582,551
2022-01-24T00:19:54,42.805,6.029,CST-1368DR,4955,6260,13497,0.583,551
2022-01-24T00:22:55,42.805,6.029,CST-1368DR,4955,6262,13501,0.582,551
2022-01-24T00:25:57,42.805,6.029,CST-1368DR,4955,6262,13500,0.582,551
2022-01-24T00:28:58,42.805,6.029,CST-1368DR,4955,6262,13501,0.582,551
2022-01-24T00:32:00,42.805,6.029,CST-1368DR,4955,6261,13498,0.583,551
2022-01-24T00:35:02,42.805,6.029,CST-1368DR,4955,6262,13502,0.582,551
2022-01-24T00:38:03,42.805,6.029,CST-1368DR,4955,6261,13499,0.583,551
2022-01-24T00:41:05,42.805,6.029,CST-1368DR,4955,6262,13501,0.582,551
2022-01-24T00:44:06,42.805,6.029,CST-1368DR,4955,6262,13501,0.582,551
2022-01-24T00:47:08,42.805,6.029,CST-1368DR,4955,6262,13500,0.582,551
2022-01-24T00:50:10,42.805,6.029,CST-1368DR,4955,6262,13501,0.582,551
2022-01-24T00:53:11,42.805,6.029,CST-1368DR,4955,6259,13494,0.584,551
2022-01-24T00:56:13,42.805,6.029,CST-1368DR,4955,6261,13499,0.583,551
2022-01-24T00:59:14,42.805,6.029,CST-1368DR,4954,6259,13497,0.583,551
2022-01-24T01:02:16,42.805,6.029,CST-1368DR,4955,6260,13496,0.584,551
2022-01-24T01:05:17,42.805,6.029,CST-1368DR,4955,6262,13501,0.582,551
2022-01-24T01:08:19,42.805,6.029,CST-1368DR,4955,6262,13500,0.582,551
2022-01-24T01:11:21,42.805,6.029,CST-1368DR,4955,6261,13499,0.583,551
2022-01-24T01:14:22,42.805,6.029,CST-1368DR,4955,6262,13501,0.582,551
2022-01-24T01:17:24,42.805,6.029,CST-1368DR,4955,6262,13500,0.582,551
2022-01-24T01:20:25,42.805,6.029,CST-1368DR,4954,6262,13503,0.582,551
2022-01-24T01:23:27,42.805,6.029,CST-1368DR,4955,6261,13498,0.583,551
2022-01-24T01:26:28,42.805,6.029,CST-1368DR,4955,6260,13497,0.583,551
2022-01-24T01:29:30,42.805,6.029,CST-1368DR,4955,6261,13498,0.583,551
2022-01-24T01:32:32,42.805,6.029,CST-1368DR,4955,6261,13499,0.583,551
2022-01-24T01:35:33,42.805,6.029,CST-1368DR,4955,6262,13501,0.582,551
2022-01-24T01:38:35,42.805,6.029,CST-1368DR,4954,6262,13503,0.582,551
2022-01-24T01:41:36,42.805,6.029,CST-1368DR,4954,6261,13501,0.582,551
2022-01-24T01:44:38,42.805,6.029,CST-1368DR,4954,6261,13500,0.582,551
2022-01-24T01:47:40,42.805,6.029,CST-1368DR,4954,6259,13497,0.583,551
2022-01-24T01:50:41,42.805,6.029,CST-1368DR,4955,6261,13499,0.583,551
2022-01-24T01:53:43,42.805,6.029,CST-1368DR,4955,6261,13498,0.583,551
2022-01-24T01:56:44,42.805,6.029,CST-1368DR,4955,6262,13501,0.582,550
2022-01-24T01:59:46,42.805,6.029,CST-1368DR,4955,6261,13499,0.583,551
2022-01-24T02:02:47,42.805,6.029,CST-1368DR,4955,6260,13497,0.583,551
2022-01-24T02:05:49,42.805,6.029,CST-1368DR,4955,6260,13496,0.584,551
2022-01-24T02:08:51,42.805,6.029,CST-1368DR,4954,6261,13501,0.582,551
2022-01-24T02:11:52,42.805,6.029,CST-1368DR,4955,6262,13500,0.582,551
2022-01-24T02:14:54,42.805,6.029,CST-1368DR,4954,6260,13500,0.582,551
2022-01-24T02:17:55,42.805,6.029,CST-1368DR,4954,6262,13503,0.582,551
2022-01-24T02:20:57,42.805,6.029,CST-1368DR,4954,6256,13491,0.585,551
2022-01-24T02:23:59,42.805,6.029,CST-1368DR,4954,6261,13501,0.582,551
2022-01-24T02:27:00,42.805,6.029,CST-1368DR,4954,6261,13500,0.582,551
2022-01-24T02:30:02,42.805,6.029,CST-1368DR,4954,6261,13502,0.582,551
2022-01-24T02:33:03,42.805,6.029,CST-1368DR,4954,6261,13500,0.582,551
2022-01-24T02:36:05,42.805,6.029,CST-1368DR,4954,6261,13501,0.582,551
2022-01-24T02:39:06,42.805,6.029,CST-1368DR,4954,6261,13502,0.582,551
2022-01-24T02:42:08,42.805,6.029,CST-1368DR,4954,6260,13500,0.582,551
2022-01-24T02:45:10,42.805,6.029,CST-1368DR,4954,6261,13501,0.582,551
2022-01-24T02:48:11,42.805,6.029,CST-1368DR,4954,6261,13501,0.582,551
2022-01-24T02:51:13,42.805,6.029,CST-1368DR,4954,6261,13501,0.582,551
2022-01-24T02:54:14,42.805,6.029,CST-1368DR,4954,6260,13500,0.582,551
2022-01-24T02:57:16,42.805,6.029,CST-1368DR,4954,6259,13498,0.583,551
2022-01-24T03:00:18,42.805,6.029,CST-1368DR,4954,6258,13495,0.584,551
2022-01-24T03:03:19,42.805,6.029,CST-1368DR,4954,6261,13500,0.582,551
2022-01-24T03:06:21,42.805,6.029,CST-1368DR,4954,6261,13501,0.582,551
2022-01-24T03:09:22,42.805,6.029,CST-1368DR,4954,6261,13501,0.582,551
2022-01-24T03:12:24,42.805,6.029,CST-1368DR,4954,6261,13500,0.582,551
2022-01-24T03:15:25,42.805,6.029,CST-1368DR,4954,6261,13502,0.582,551
2022-01-24T03:18:27,42.805,6.029,CST-1368DR,4954,6261,13502,0.582,551
2022-01-24T03:21:29,42.805,6.029,CST-1368DR,4954,6261,13501,0.582,551
2022-01-24T03:24:30,42.805,6.029,CST-1368DR,4954,6262,13503,0.582,551
2022-01-24T03:27:32,42.805,6.029,CST-1368DR,4954,6261,13502,0.582,551
2022-01-24T03:30:33,42.805,6.029,CST-1368DR,4954,6261,13500,0.582,551
2022-01-24T03:33:35,42.805,6.029,CST-1368DR,4954,6261,13502,0.582,551
2022-01-24T03:36:36,42.805,6.029,CST-1368DR,4954,6261,13501,0.582,551
2022-01-24T03:39:38,42.805,6.029,CST-1368DR,4954,6261,13500,0.582,551
2022-01-24T03:42:40,42.805,6.029,CST-1368DR,4954,6260,13499,0.583,551
2022-01-24T03:45:41,42.805,6.029,CST-1368DR,4954,6261,13501,0.582,551
2022-01-24T03:48:43,42.805,6.029,CST-1368DR,4954,6261,13501,0.582,551
2022-01-24T03:51:44,42.805,6.029,CST-1368DR,4954,6261,13502,0.582,551
2022-01-24T03:54:46,42.805,6.029,CST-1368DR,4954,6261,13501,0.582,551
2022-01-24T03:57:48,42.805,6.029,CST-1368DR,4954,6260,13500,0.582,551
2022-01-24T04:00:49,42.805,6.029,CST-1368DR,4954,6261,13501,0.582,551
2022-01-24T04:03:51,42.805,6.029,CST-1368DR,4954,6262,13503,0.582,551
2022-01-24T04:06:52,42.805,6.029,CST-1368DR,4954,6260,13500,0.582,551
2022-01-24T04:10:07,42.805,6.029,CST-1368DR,4954,6261,13502,0.582,551
2022-01-24T04:13:08,42.805,6.029,CST-1368DR,4954,6261,13502,0.582,551
2022-01-24T04:16:10,42.805,6.029,CST-1368DR,4954,6261,13502,0.582,551
2022-01-24T04:19:12,42.805,6.029,CST-1368DR,4954,6261,13500,0.582,551
2022-01-24T04:22:13,42.805,6.029,CST-1368DR,4954,6261,13502,0.582,551
2022-01-24T04:25:15,42.805,6.029,CST-1368DR,4954,6260,13500,0.582,551
2022-01-24T04:28:16,42.805,6.029,CST-1368DR,4954,6261,13501,0.582,551
2022-01-24T04:31:18,42.805,6.029,CST-1368DR,4954,6258,13496,0.584,551
2022-01-24T04:34:19,42.805,6.029,CST-1368DR,4954,6260,13498,0.583,551
2022-01-24T04:37:21,42.805,6.029,CST-1368DR,4954,6260,13499,0.583,551
2022-01-24T04:40:23,42.805,6.029,CST-1368DR,4954,6260,13499,0.583,551
2022-01-24T04:43:24,42.805,6.029,CST-1368DR,4954,6260,13500,0.582,551
2022-01-24T04:46:26,42.805,6.029,CST-1368DR,4954,6261,13501,0.582,551
2022-01-24T04:49:27,42.805,6.029,CST-1368DR,4954,6260,13500,0.582,551
2022-01-24T04:52:29,42.805,6.029,CST-1368DR,4954,6259,13498,0.583,551
2022-01-24T04:55:31,42.805,6.029,CST-1368DR,4954,6260,13499,0.583,551
2022-01-24T04:58:32,42.805,6.029,CST-1368DR,4954,6261,13502,0.582,551
2022-01-24T05:01:34,42.805,6.029,CST-1368DR,4954,6258,13495,0.584,551
2022-01-24T05:04:35,42.805,6.029,CST-1368DR,4954,6260,13500,0.582,551
2022-01-24T05:07:37,42.805,6.029,CST-1368DR,4954,6261,13500,0.582,551
2022-01-24T05:10:38,42.805,6.029,CST-1368DR,4954,6260,13499,0.583,551
2022-01-24T05:13:40,42.805,6.029,CST-1368DR,4954,6260,13499,0.583,551
2022-01-24T05:16:42,42.805,6.029,CST-1368DR,4954,6261,13500,0.582,551
2022-01-24T05:19:43,42.805,6.029,CST-1368DR,4954,6261,13501,0.582,551
2022-01-24T05:22:45,42.805,6.029,CST-1368DR,4954,6260,13499,0.583,551
2022-01-24T05:25:46,42.805,6.029,CST-1368DR,4954,6261,13502,0.582,551
2022-01-24T05:28:48,42.805,6.029,CST-1368DR,4954,6259,13497,0.583,551
2022-01-24T05:31:49,42.805,6.029,CST-1368DR,4954,6260,13499,0.583,551
2022-01-24T05:34:51,42.805,6.029,CST-1368DR,4954,6260,13499,0.583,551
2022-01-24T05:37:53,42.805,6.029,CST-1368DR,4954,6260,13500,0.582,551
2022-01-24T05:40:54,42.805,6.029,CST-1368DR,4954,6260,13499,0.583,551
2022-01-24T05:43:56,42.805,6.029,CST-1368DR,4954,6260,13500,0.582,551
2022-01-24T05:46:57,42.805,6.029,CST-1368DR,4954,6260,13500,0.582,551
2022-01-24T05:49:59,42.805,6.029,CST-1368DR,4954,6259,13498,0.583,551
2022-01-24T05:53:01,42.805,6.029,CST-1368DR,4954,6261,13501,0.582,551
2022-01-24T05:56:02,42.805,6.029,CST-1368DR,4954,6258,13496,0.584,551
2022-01-24T05:59:04,42.805,6.029,CST-1368DR,4954,6260,13500,0.582,551
2022-01-24T06:02:05,42.805,6.029,CST-1368DR,4954,6260,13500,0.582,551
2022-01-24T06:05:07,42.805,6.029,CST-1368DR,4954,6260,13500,0.582,551
2022-01-24T06:08:08,42.805,6.029,CST-1368DR,4954,6259,13497,0.583,551
2022-01-24T06:11:10,42.805,6.029,CST-1368DR,4954,6260,13500,0.582,551
2022-01-24T06:14:12,42.805,6.029,CST-1368DR,4954,6260,13499,0.583,551
2022-01-24T06:17:13,42.805,6.029,CST-1368DR,4954,6260,13499,0.583,551
2022-01-24T06:20:15,42.805,6.029,CST-1368DR,4954,6260,13499,0.583,551
2022-01-24T06:23:16,42.805,6.029,CST-1368DR,4954,6261,13500,0.582,551
2022-01-24T06:26:18,42.805,6.029,CST-1368DR,4954,6260,13498,0.583,551
2022-01-24T06:29:19,42.805,6.029,CST-1368DR,4954,6260,13498,0.583,551
2022-01-24T06:32:21,42.805,6.029,CST-1368DR,4954,6260,13499,0.583,551
2022-01-24T06:35:23,42.805,6.029,CST-1368DR,4954,6260,13499,0.583,551
2022-01-24T06:38:24,42.805,6.029,CST-1368DR,4954,6261,13500,0.582,551
2022-01-24T06:41:26,42.805,6.029,CST-1368DR,4954,6260,13500,0.582,551
2022-01-24T06:44:27,42.805,6.029,CST-1368DR,4954,6259,13498,0.583,551
2022-01-24T06:47:29,42.805,6.029,CST-1368DR,4954,6260,13498,0.583,551
2022-01-24T06:50:31,42.805,6.029,CST-1368DR,4954,6260,13500,0.582,551
2022-01-24T06:53:32,42.805,6.029,CST-1368DR,4954,6260,13500,0.582,551
2022-01-24T06:56:34,42.805,6.029,CST-1368DR,4954,6259,13498,0.583,551
2022-01-24T06:59:35,42.805,6.029,CST-1368DR,4954,6259,13497,0.583,551
2022-01-24T07:02:37,42.805,6.029,CST-1368DR,4954,6259,13497,0.583,551
2022-01-24T07:05:38,42.805,6.029,CST-1368DR,4954,6259,13497,0.583,551
2022-01-24T07:08:40,42.805,6.029,CST-1368DR,4954,6259,13498,0.583,551
2022-01-24T07:11:42,42.805,6.029,CST-1368DR,4954,6259,13498,0.583,551
2022-01-24T07:14:43,42.805,6.029,CST-1368DR,4954,6259,13498,0.583,551
2022-01-24T07:17:45,42.805,6.029,CST-1368DR,4954,6260,13498,0.583,551
2022-01-24T07:20:46,42.805,6.029,CST-1368DR,4954,6260,13498,0.583,551
2022-01-24T07:23:48,42.805,6.029,CST-1368DR,4954,6259,13497,0.583,551
2022-01-24T07:26:49,42.805,6.029,CST-1368DR,4954,6259,13497,0.583,551
2022-01-24T07:29:51,42.805,6.029,CST-1368DR,4954,6260,13499,0.583,551
2022-01-24T07:32:53,42.805,6.029,CST-1368DR,4954,6258,13496,0.584,551
2022-01-24T07:35:54,42.805,6.029,CST-1368DR,4954,6260,13498,0.583,551
2022-01-24T07:38:56,42.805,6.029,CST-1368DR,4954,6260,13499,0.583,551
2022-01-24T07:41:57,42.805,6.029,CST-1368DR,4954,6259,13498,0.583,551
2022-01-24T07:44:59,42.805,6.029,CST-1368DR,4954,6259,13498,0.583,551
2022-01-24T07:48:01,42.805,6.029,CST-1368DR,4954,6260,13498,0.583,551
2022-01-24T07:51:02,42.805,6.029,CST-1368DR,4954,6260,13498,0.583,551
2022-01-24T07:54:04,42.805,6.029,CST-1368DR,4954,6260,13499,0.583,551
2022-01-24T07:57:05,42.805,6.029,CST-1368DR,4954,6259,13498,0.583,551
2022-01-24T08:00:07,42.805,6.029,CST-1368DR,4954,6260,13498,0.583,551
2022-01-24T08:03:08,42.805,6.029,CST-1368DR,4954,6259,13496,0.584,551
2022-01-24T08:06:10,42.805,6.029,CST-1368DR,4954,6259,13497,0.583,551
2022-01-24T08:09:12,42.805,6.029,CST-1368DR,4954,6259,13497,0.583,551
2022-01-24T08:12:13,42.805,6.029,CST-1368DR,4954,6259,13497,0.583,551
2022-01-24T08:15:15,42.805,6.029,CST-1368DR,4954,6259,13497,0.583,551
2022-01-24T08:18:16,42.805,6.029,CST-1368DR,4954,6260,13498,0.583,551
2022-01-24T08:21:18,42.805,6.029,CST-1368DR,4954,6260,13499,0.583,551
2022-01-24T08:24:20,42.805,6.029,CST-1368DR,4954,6260,13500,0.582,551
2022-01-24T08:27:21,42.805,6.029,CST-1368DR,4954,6259,13498,0.583,551
2022-01-24T08:30:23,42.805,6.029,CST-1368DR,4954,6259,13497,0.583,551
2022-01-24T08:33:24,42.805,6.029,CST-1368DR,4954,6260,13500,0.582,551
2022-01-24T08:36:26,42.805,6.029,CST-1368DR,4954,6259,13497,0.583,551
2022-01-24T08:39:27,42.805,6.029,CST-1368DR,4954,6259,13498,0.583,551
2022-01-24T08:42:29,42.805,6.029,CST-1368DR,4954,6259,13498,0.583,551
2022-01-24T08:45:31,42.805,6.029,CST-1368DR,4954,6259,13498,0.583,551
2022-01-24T08:48:32,42.805,6.029,CST-1368DR,4954,6259,13497,0.583,551
2022-01-24T08:51:34,42.805,6.029,CST-1368DR,4954,6259,13498,0.583,551
2022-01-24T08:54:35,42.805,6.029,CST-1368DR,4954,6260,13499,0.583,551
2022-01-24T08:57:37,42.805,6.029,CST-1368DR,4954,6259,13497,0.583,551
2022-01-24T09:00:39,42.805,6.029,CST-1368DR,4954,6259,13498,0.583,551
2022-01-24T09:03:40,42.805,6.029,CST-1368DR,4954,6259,13497,0.583,551
2022-01-24T09:06:42,42.805,6.029,CST-1368DR,4954,6259,13496,0.584,550
2022-01-24T09:09:43,42.805,6.029,CST-1368DR,4954,6260,13499,0.583,551
2022-01-24T09:12:45,42.805,6.029,CST-1368DR,4954,6258,13495,0.584,551
2022-01-24T09:15:46,42.805,6.029,CST-1368DR,4954,6260,13499,0.583,551
2022-01-24T09:18:48,42.805,6.029,CST-1368DR,4954,6259,13498,0.583,551
2022-01-24T09:21:50,42.805,6.029,CST-1368DR,4954,6260,13498,0.583,551
2022-01-24T09:24:51,42.805,6.029,CST-1368DR,4954,6260,13499,0.583,551
2022-01-24T09:27:53,42.805,6.029,CST-1368DR,4954,6258,13495,0.584,551
2022-01-24T09:30:54,42.805,6.029,CST-1368DR,4954,6259,13496,0.584,551
2022-01-24T09:33:56,42.805,6.029,CST-1368DR,4954,6259,13496,0.584,551
2022-01-24T09:36:57,42.805,6.029,CST-1368DR,4954,6259,13496,0.584,551
2022-01-24T09:39:59,42.805,6.029,CST-1368DR,4954,6259,13497,0.583,551
2022-01-24T09:43:01,42.805,6.029,CST-1368DR,4954,6259,13498,0.583,551
2022-01-24T09:46:02,42.805,6.029,CST-1368DR,4954,6260,13498,0.583,551
2022-01-24T09:49:04,42.805,6.029,CST-1368DR,4954,6259,13497,0.583,551
2022-01-24T09:52:05,42.805,6.029,CST-1368DR,4954,6259,13496,0.584,550
2022-01-24T09:55:07,42.805,6.029,CST-1368DR,4954,6258,13496,0.584,551
2022-01-24T09:58:08,42.805,6.029,CST-1368DR,4954,6259,13497,0.583,551
2022-01-24T10:01:10,42.805,6.029,CST-1368DR,4954,6260,13499,0.583,551
2022-01-24T10:04:12,42.805,6.029,CST-1368DR,4954,6259,13497,0.583,551
2022-01-24T10:07:13,42.805,6.029,CST-1368DR,4954,6258,13496,0.584,551
2022-01-24T10:10:15,42.805,6.029,CST-1368DR,4954,6257,13493,0.585,551
2022-01-24T10:13:16,42.805,6.029,CST-1368DR,4954,6259,13498,0.583,551
2022-01-24T10:16:18,42.805,6.029,CST-1368DR,4954,6259,13496,0.584,551
2022-01-24T10:19:20,42.805,6.029,CST-1368DR,4954,6259,13496,0.584,551
2022-01-24T10:22:21,42.805,6.029,CST-1368DR,4954,6260,13498,0.583,551
2022-01-24T10:25:23,42.805,6.029,CST-1368DR,4954,6260,13500,0.582,551
2022-01-24T10:28:24,42.805,6.029,CST-1368DR,4954,6259,13497,0.583,551
2022-01-24T10:31:26,42.805,6.029,CST-1368DR,4954,6260,13499,0.583,551
2022-01-24T10:34:27,42.805,6.029,CST-1368DR,4954,6260,13498,0.583,551
2022-01-24T10:37:29,42.805,6.029,CST-1368DR,4954,6259,13497,0.583,551
2022-01-24T10:40:31,42.805,6.029,CST-1368DR,4954,6259,13498,0.583,551
2022-01-24T10:43:32,42.805,6.029,CST-1368DR,4954,6261,13500,0.582,551
2022-01-24T10:46:34,42.805,6.029,CST-1368DR,4954,6261,13500,0.582,551
2022-01-24T10:49:35,42.805,6.029,CST-1368DR,4954,6258,13495,0.584,551
2022-01-24T10:52:37,42.805,6.029,CST-1368DR,4954,6258,13494,0.584,551
2022-01-24T10:55:39,42.805,6.029,CST-1368DR,4954,6260,13499,0.583,551
2022-01-24T10:58:40,42.805,6.029,CST-1368DR,4953,6254,13490,0.585,551
2022-01-24T11:01:42,42.805,6.029,CST-1368DR,4953,6259,13500,0.582,551
2022-01-24T11:04:43,42.805,6.029,CST-1368DR,4953,6260,13501,0.582,551
2022-01-24T11:07:45,42.805,6.029,CST-1368DR,4953,6259,13500,0.582,551
2022-01-24T11:10:46,42.805,6.029,CST-1368DR,4953,6260,13501,0.582,551
2022-01-24T11:13:48,42.805,6.029,CST-1368DR,4953,6259,13500,0.582,551
2022-01-24T11:16:50,42.805,6.029,CST-1368DR,4953,6259,13499,0.583,551
2022-01-24T11:19:51,42.805,6.029,CST-1368DR,4953,6259,13499,0.583,551
2022-01-24T11:22:53,42.805,6.029,CST-1368DR,4954,6259,13497,0.583,551
2022-01-24T11:25:54,42.805,6.029,CST-1368DR,4954,6258,13494,0.584,551
2022-01-24T11:28:56,42.805,6.029,CST-1368DR,4954,6258,13495,0.584,551
2022-01-24T11:31:58,42.805,6.029,CST-1368DR,4953,6257,13495,0.584,551
2022-01-24T11:34:59,42.805,6.029,CST-1368DR,4953,6257,13496,0.584,551
2022-01-24T11:38:01,42.805,6.029,CST-1368DR,4954,6259,13497,0.583,551
2022-01-24T11:41:02,42.805,6.029,CST-1368DR,4954,6259,13496,0.584,551
2022-01-24T11:44:04,42.805,6.029,CST-1368DR,4954,6259,13497,0.583,551
2022-01-24T11:47:05,42.805,6.029,CST-1368DR,4954,6259,13497,0.583,551
2022-01-24T11:50:07,42.805,6.029,CST-1368DR,4953,6259,13499,0.583,551
2022-01-24T11:53:09,42.805,6.029,CST-1368DR,4954,6259,13498,0.583,551
2022-01-24T11:56:10,42.805,6.029,CST-1368DR,4954,6259,13497,0.583,551
2022-01-24T11:59:12,42.805,6.029,CST-1368DR,4954,6260,13499,0.583,551
2022-01-24T12:02:13,42.805,6.029,CST-1368DR,4954,6259,13497,0.583,551
2022-01-24T12:05:15,42.805,6.029,CST-1368DR,4954,6259,13498,0.583,551
2022-01-24T12:08:17,42.805,6.029,CST-1368DR,4954,6259,13497,0.583,551
2022-01-24T12:11:18,42.805,6.029,CST-1368DR,4953,6258,13498,0.583,551
2022-01-24T12:14:20,42.805,6.029,CST-1368DR,4953,6259,13499,0.583,551
2022-01-24T12:17:21,42.805,6.029,CST-1368DR,4953,6260,13503,0.582,551
2022-01-24T12:20:23,42.805,6.029,CST-1368DR,4954,6261,13500,0.582,551
2022-01-24T12:23:24,42.805,6.029,CST-1368DR,4953,6260,13501,0.582,550
2022-01-24T12:26:26,42.805,6.029,CST-1368DR,4953,6260,13501,0.582,551
2022-01-24T12:29:28,42.805,6.029,CST-1368DR,4953,6260,13501,0.582,551
2022-01-24T12:32:29,42.805,6.029,CST-1368DR,4953,6259,13500,0.582,551
2022-01-24T12:35:31,42.805,6.029,CST-1368DR,4953,6259,13499,0.583,551
2022-01-24T12:38:32,42.805,6.029,CST-1368DR,4953,6259,13499,0.583,551
2022-01-24T12:41:34,42.805,6.029,CST-1368DR,4953,6260,13501,0.582,551
2022-01-24T12:44:35,42.805,6.029,CST-1368DR,4953,6260,13501,0.582,551
2022-01-24T12:47:37,42.805,6.029,CST-1368DR,4953,6261,13503,0.582,551
2022-01-24T12:50:39,42.805,6.029,CST-1368DR,4953,6259,13500,0.582,550
2022-01-24T12:53:40,42.805,6.029,CST-1368DR,4953,6258,13498,0.583,550
2022-01-24T12:56:42,42.805,6.029,CST-1368DR,4953,6261,13503,0.582,551
2022-01-24T12:59:43,42.805,6.029,CST-1368DR,4953,6259,13499,0.583,551
2022-01-24T13:02:45,42.805,6.029,CST-1368DR,4953,6259,13500,0.582,551
2022-01-24T13:05:47,42.805,6.029,CST-1368DR,4953,6257,13496,0.584,551
2022-01-24T13:08:48,42.805,6.029,CST-1368DR,4953,6255,13492,0.585,551
2022-01-24T13:11:50,42.805,6.029,CST-1368DR,4953,6257,13496,0.584,551
2022-01-24T13:14:51,42.805,6.029,CST-1368DR,4953,6255,13492,0.585,551
2022-01-24T13:17:53,42.805,6.029,CST-1368DR,4953,6258,13497,0.583,551
2022-01-24T13:20:54,42.805,6.029,CST-1368DR,4953,6260,13501,0.582,551
2022-01-24T13:23:56,42.805,6.029,CST-1368DR,4953,6260,13501,0.582,551
2022-01-24T13:26:58,42.805,6.029,CST-1368DR,4953,6257,13496,0.584,551
2022-01-24T13:29:59,42.805,6.029,CST-1368DR,4953,6260,13501,0.582,551
2022-01-24T13:33:01,42.805,6.029,CST-1368DR,4953,6260,13501,0.582,551
2022-01-24T13:36:02,42.805,6.029,CST-1368DR,4953,6259,13499,0.583,551
2022-01-24T13:39:04,42.805,6.029,CST-1368DR,4953,6259,13499,0.583,551
2022-01-24T13:42:06,42.805,6.029,CST-1368DR,4953,6258,13498,0.583,551
2022-01-24T13:45:07,42.805,6.029,CST-1368DR,4953,6259,13500,0.582,551
2022-01-24T13:48:09,42.805,6.029,CST-1368DR,4953,6259,13500,0.582,551
2022-01-24T13:51:10,42.805,6.029,CST-1368DR,4953,6257,13496,0.584,551
2022-01-24T13:54:12,42.805,6.029,CST-1368DR,4953,6258,13498,0.583,551
2022-01-24T13:57:13,42.805,6.029,CST-1368DR,4953,6258,13498,0.583,551
2022-01-24T14:00:15,42.805,6.029,CST-1368DR,4953,6259,13500,0.582,551
2022-01-24T14:03:17,42.805,6.029,CST-1368DR,4953,6259,13499,0.583,551
2022-01-24T14:06:18,42.805,6.029,CST-1368DR,4953,6258,13498,0.583,551
2022-01-24T14:09:20,42.805,6.029,CST-1368DR,4953,6259,13499,0.583,551
2022-01-24T14:12:21,42.805,6.029,CST-1368DR,4953,6259,13499,0.583,551
2022-01-24T14:15:23,42.805,6.029,CST-1368DR,4953,6259,13500,0.582,551
2022-01-24T14:18:24,42.805,6.029,CST-1368DR,4953,6259,13500,0.582,551
2022-01-24T14:21:26,42.805,6.029,CST-1368DR,4953,6258,13497,0.583,551
2022-01-24T14:24:28,42.805,6.029,CST-1368DR,4953,6259,13499,0.583,551
2022-01-24T14:27:29,42.805,6.029,CST-1368DR,4953,6258,13497,0.583,551
2022-01-24T14:30:31,42.805,6.029,CST-1368DR,4953,6259,13499,0.583,551
2022-01-24T14:33:32,42.805,6.029,CST-1368DR,4953,6258,13498,0.583,551
2022-01-24T14:36:34,42.805,6.029,CST-1368DR,4953,6258,13498,0.583,551
2022-01-24T14:39:36,42.805,6.029,CST-1368DR,4953,6256,13493,0.585,551
2022-01-24T14:42:37,42.805,6.029,CST-1368DR,4953,6258,13498,0.583,551
2022-01-24T14:45:39,42.805,6.029,CST-1368DR,4953,6259,13500,0.582,551
2022-01-24T14:48:40,42.805,6.029,CST-1368DR,4953,6259,13499,0.583,551
2022-01-24T14:51:42,42.805,6.029,CST-1368DR,4953,6258,13498,0.583,551
2022-01-24T14:54:43,42.805,6.029,CST-1368DR,4953,6257,13496,0.584,551
2022-01-24T14:57:45,42.805,6.029,CST-1368DR,4953,6258,13498,0.583,551
2022-01-24T15:00:47,42.805,6.029,CST-1368DR,4953,6259,13499,0.583,551
2022-01-24T15:03:48,42.805,6.029,CST-1368DR,4953,6257,13496,0.584,551
2022-01-24T15:06:50,42.805,6.029,CST-1368DR,4953,6258,13497,0.583,551
2022-01-24T15:09:51,42.805,6.029,CST-1368DR,4953,6257,13496,0.584,551
2022-01-24T15:12:53,42.805,6.029,CST-1368DR,4953,6257,13496,0.584,551
2022-01-24T15:15:55,42.805,6.029,CST-1368DR,4953,6258,13498,0.583,551
2022-01-24T15:18:56,42.805,6.029,CST-1368DR,4953,6258,13498,0.583,551
2022-01-24T15:21:58,42.805,6.029,CST-1368DR,4953,6258,13498,0.583,551
2022-01-24T15:24:59,42.805,6.029,CST-1368DR,4953,6258,13497,0.583,550
2022-01-24T15:28:01,42.805,6.029,CST-1368DR,4953,6258,13498,0.583,551
2022-01-24T15:31:02,42.805,6.029,CST-1368DR,4953,6256,13493,0.585,551
2022-01-24T15:34:04,42.805,6.029,CST-1368DR,4953,6258,13498,0.583,551
2022-01-24T15:37:06,42.805,6.029,CST-1368DR,4953,6257,13496,0.584,551
2022-01-24T15:40:07,42.805,6.029,CST-1368DR,4953,6256,13493,0.585,551
2022-01-24T15:43:09,42.805,6.029,CST-1368DR,4953,6258,13497,0.583,551
2022-01-24T15:46:10,42.805,6.029,CST-1368DR,4953,6258,13497,0.583,551
2022-01-24T15:49:12,42.805,6.029,CST-1368DR,4953,6256,13494,0.584,551
2022-01-24T15:52:13,42.805,6.029,CST-1368DR,4953,6258,13498,0.583,551
2022-01-24T15:55:15,42.805,6.029,CST-1368DR,4953,6258,13498,0.583,551
2022-01-24T15:58:17,42.805,6.029,CST-1368DR,4953,6256,13494,0.584,551
2022-01-24T16:01:18,42.805,6.029,CST-1368DR,4953,6258,13497,0.583,551
2022-01-24T16:04:20,42.805,6.029,CST-1368DR,4953,6258,13498,0.583,551
2022-01-24T16:07:21,42.805,6.029,CST-1368DR,4953,6256,13493,0.585,551
2022-01-24T16:10:23,42.805,6.029,CST-1368DR,4953,6258,13497,0.583,551
2022-01-24T16:13:25,42.805,6.029,CST-1368DR,4953,6257,13496,0.584,551
2022-01-24T16:16:26,42.805,6.029,CST-1368DR,4953,6258,13497,0.583,551
2022-01-24T16:19:28,42.805,6.029,CST-1368DR,4953,6257,13496,0.584,551
2022-01-24T16:22:29,42.805,6.029,CST-1368DR,4953,6257,13496,0.584,551
2022-01-24T16:25:31,42.805,6.029,CST-1368DR,4953,6258,13497,0.583,551
2022-01-24T16:28:32,42.805,6.029,CST-1368DR,4953,6258,13498,0.583,551
2022-01-24T16:31:34,42.805,6.029,CST-1368DR,4953,6258,13497,0.583,551
2022-01-24T16:34:36,42.805,6.029,CST-1368DR,4953,6256,13494,0.584,551
2022-01-24T16:37:37,42.805,6.029,CST-1368DR,4953,6257,13496,0.584,551
2022-01-24T16:40:39,42.805,6.029,CST-1368DR,4953,6257,13495,0.584,551
2022-01-24T16:43:40,42.805,6.029,CST-1368DR,4953,6256,13493,0.585,551
2022-01-24T16:46:42,42.805,6.029,CST-1368DR,4953,6256,13494,0.584,551
2022-01-24T16:49:44,42.805,6.029,CST-1368DR,4953,6256,13493,0.585,551
2022-01-24T16:52:45,42.805,6.029,CST-1368DR,4953,6256,13493,0.585,551